CCARS SCIE-SCSE

Flight info

Callsign CCARS
Flight time N/A
Altitude 40000
Route SOSTA3L SOSTA UT105 KATOS DCT DANLA DANLA3B
Aircraft B738/M-SDE2E3FGHIRWXY/LB1

Departure

Time N/A
Airport Carriel Sur International Airport (SCIE)

Arrival

Time 2026-05-03 21:09
Airport La Florida Airport (SCSE)
Time Latitude Longitude Altitude Speed Heading
2026-05-03 20:15 -35.34487 -72.50362 29519 ft 466 kts
2026-05-03 20:15 -35.31280 -72.49670 29775 ft 468 kts
2026-05-03 20:15 -35.28066 -72.48978 30018 ft 470 kts
2026-05-03 20:15 -35.24828 -72.48281 30252 ft 472 kts
2026-05-03 20:16 -35.21588 -72.47585 30447 ft 474 kts
2026-05-03 20:16 -35.18330 -72.46884 30665 ft 476 kts
2026-05-03 20:16 -35.15128 -72.46197 30861 ft 477 kts
2026-05-03 20:16 -35.11851 -72.45494 31055 ft 479 kts
2026-05-03 20:17 -35.08569 -72.44789 31293 ft 479 kts
2026-05-03 20:17 -35.05289 -72.44085 31608 ft 477 kts
2026-05-03 20:17 -35.02026 -72.43384 31910 ft 476 kts
2026-05-03 20:17 -34.98755 -72.42683 32197 ft 476 kts
2026-05-03 20:18 -34.95495 -72.41986 32430 ft 476 kts
2026-05-03 20:18 -34.92236 -72.41291 32700 ft 476 kts
2026-05-03 20:18 -34.88980 -72.40597 33016 ft 474 kts
2026-05-03 20:18 -34.85735 -72.39904 33320 ft 473 kts
2026-05-03 20:19 -34.82523 -72.39220 33581 ft 473 kts 360°
2026-05-03 20:19 -34.79276 -72.38530 33847 ft 473 kts 360°
2026-05-03 20:19 -34.76041 -72.37843 34128 ft 472 kts 360°
2026-05-03 20:19 -34.72807 -72.37155 34394 ft 471 kts 360°
2026-05-03 20:20 -34.69590 -72.36472 34662 ft 470 kts 360°
2026-05-03 20:20 -34.66366 -72.35788 34897 ft 469 kts 359°
2026-05-03 20:20 -34.63161 -72.35109 35145 ft 468 kts 359°
2026-05-03 20:20 -34.59955 -72.34430 35416 ft 467 kts 359°
2026-05-03 20:21 -34.56754 -72.33752 35683 ft 465 kts 359°
2026-05-03 20:21 -34.53569 -72.33078 35910 ft 465 kts 359°
2026-05-03 20:21 -34.50385 -72.32406 36135 ft 464 kts 359°
2026-05-03 20:21 -34.47211 -72.31737 36389 ft 463 kts 359°
2026-05-03 20:22 -34.44116 -72.31083 36644 ft 461 kts 359°
2026-05-03 20:22 -34.40955 -72.30417 36872 ft 461 kts 359°
2026-05-03 20:22 -34.37791 -72.29751 37083 ft 460 kts 359°
2026-05-03 20:22 -34.34639 -72.29088 37308 ft 459 kts 359°
2026-05-03 20:23 -34.31497 -72.28427 37540 ft 458 kts 359°
2026-05-03 20:23 -34.28358 -72.27767 37768 ft 457 kts 359°
2026-05-03 20:23 -34.25226 -72.27110 37945 ft 457 kts 359°
2026-05-03 20:23 -34.22092 -72.26453 38165 ft 456 kts 359°
2026-05-03 20:24 -34.18960 -72.25796 38356 ft 456 kts 358°
2026-05-03 20:24 -34.15842 -72.25143 38542 ft 455 kts 358°
2026-05-03 20:24 -34.12719 -72.24490 38722 ft 455 kts 358°
2026-05-03 20:24 -34.09638 -72.23845 38873 ft 454 kts 358°
2026-05-03 20:25 -34.06525 -72.23195 39001 ft 454 kts 358°
2026-05-03 20:25 -34.03413 -72.22545 39129 ft 454 kts 358°
2026-05-03 20:25 -34.00300 -72.21895 39268 ft 453 kts 358°
2026-05-03 20:25 -33.97192 -72.21247 39394 ft 453 kts 358°
2026-05-03 20:26 -33.94085 -72.20600 39500 ft 454 kts 358°
2026-05-03 20:26 -33.90975 -72.19953 39605 ft 454 kts 358°
2026-05-03 20:26 -33.87858 -72.19304 39734 ft 453 kts 358°
2026-05-03 20:26 -33.84752 -72.18658 39855 ft 453 kts 358°
2026-05-03 20:27 -33.81644 -72.18012 39943 ft 453 kts 358°
2026-05-03 20:27 -33.78534 -72.17366 40046 ft 453 kts 358°
2026-05-03 20:27 -33.75427 -72.16721 40087 ft 454 kts 358°
2026-05-03 20:28 -33.69236 -72.15439 40087 ft 455 kts 359°
2026-05-03 20:28 -33.62985 -72.14145 40097 ft 456 kts 359°
2026-05-03 20:29 -33.56736 -72.12854 40093 ft 456 kts 359°
2026-05-03 20:29 -33.50488 -72.11565 40091 ft 456 kts 359°
2026-05-03 20:30 -33.44236 -72.10276 40092 ft 456 kts 359°
2026-05-03 20:30 -33.37988 -72.08990 40089 ft 455 kts 359°
2026-05-03 20:31 -33.31779 -72.07714 40091 ft 455 kts 359°
2026-05-03 20:31 -33.25535 -72.06433 40089 ft 455 kts 359°
2026-05-03 20:32 -33.19287 -72.05152 40085 ft 455 kts 359°
2026-05-03 20:32 -33.13050 -72.03876 40084 ft 455 kts 359°
2026-05-03 20:33 -33.06815 -72.02602 40091 ft 455 kts 359°
2026-05-03 20:33 -33.00629 -72.01340 40086 ft 455 kts 359°
2026-05-03 20:34 -32.95437 -72.00282 40078 ft 455 kts 359°
2026-05-03 20:34 -32.88181 -71.98805 40080 ft 454 kts 359°
2026-05-03 20:35 -32.82957 -71.97745 40077 ft 454 kts 358°
2026-05-03 20:35 -32.76724 -71.96483 40075 ft 455 kts 358°
2026-05-03 20:36 -32.70483 -71.95221 40078 ft 455 kts 358°
2026-05-03 20:36 -32.64241 -71.93959 40085 ft 455 kts 358°
2026-05-03 20:37 -32.57982 -71.92696 40083 ft 456 kts 358°
2026-05-03 20:37 -32.51768 -71.91444 40080 ft 456 kts 358°
2026-05-03 20:38 -32.45507 -71.90184 40079 ft 457 kts 358°
2026-05-03 20:38 -32.39197 -71.88916 40083 ft 457 kts 358°
2026-05-03 20:39 -32.33029 -71.87677 40078 ft 457 kts 358°
2026-05-03 20:39 -32.26746 -71.86417 40082 ft 458 kts 358°
2026-05-03 20:40 -32.20466 -71.85161 40076 ft 458 kts 358°
2026-05-03 20:40 -32.17310 -71.84532 39809 ft 463 kts 358°
2026-05-03 20:40 -32.14110 -71.83899 39312 ft 466 kts 359°
2026-05-03 20:40 -32.10920 -71.83261 38769 ft 465 kts 359°
2026-05-03 20:41 -32.07736 -71.82623 38116 ft 464 kts 359°
2026-05-03 20:41 -32.04561 -71.81986 37520 ft 462 kts 359°
2026-05-03 20:41 -32.01397 -71.81353 36953 ft 460 kts 359°
2026-05-03 20:41 -31.98248 -71.80724 36364 ft 458 kts 359°
2026-05-03 20:42 -31.95105 -71.80099 35811 ft 457 kts 359°
2026-05-03 20:42 -31.91987 -71.79478 35391 ft 452 kts 360°
2026-05-03 20:42 -31.88902 -71.78863 34957 ft 449 kts 360°
2026-05-03 20:42 -31.85828 -71.78252 34529 ft 445 kts 360°
2026-05-03 20:43 -31.82801 -71.77652 34114 ft 442 kts
2026-05-03 20:43 -31.79765 -71.77050 33639 ft 439 kts
2026-05-03 20:43 -31.76758 -71.76455 33175 ft 436 kts
2026-05-03 20:43 -31.73835 -71.75877 32743 ft 433 kts
2026-05-03 20:44 -31.70821 -71.75281 32317 ft 430 kts
2026-05-03 20:44 -31.67910 -71.74706 31913 ft 427 kts
2026-05-03 20:44 -31.64989 -71.74127 31635 ft 421 kts
2026-05-03 20:44 -31.62171 -71.73566 31291 ft 417 kts
2026-05-03 20:45 -31.59312 -71.73001 30913 ft 415 kts
2026-05-03 20:45 -31.56477 -71.72442 30523 ft 413 kts
2026-05-03 20:45 -31.53643 -71.71884 30127 ft 411 kts
2026-05-03 20:45 -31.50827 -71.71330 29665 ft 410 kts
2026-05-03 20:46 -31.48024 -71.70778 29217 ft 407 kts
2026-05-03 20:46 -31.45236 -71.70229 28787 ft 405 kts
2026-05-03 20:46 -31.42459 -71.69682 28359 ft 402 kts
2026-05-03 20:46 -31.39706 -71.69140 27949 ft 400 kts
2026-05-03 20:47 -31.36971 -71.68602 27533 ft 398 kts
2026-05-03 20:47 -31.34244 -71.68066 27126 ft 396 kts
2026-05-03 20:47 -31.31530 -71.67534 26718 ft 394 kts
2026-05-03 20:47 -31.28866 -71.67011 26317 ft 392 kts
2026-05-03 20:48 -31.26181 -71.66485 25913 ft 391 kts
2026-05-03 20:48 -31.23507 -71.65961 25513 ft 390 kts
2026-05-03 20:48 -31.20835 -71.65438 25119 ft 388 kts
2026-05-03 20:48 -31.18171 -71.64917 24685 ft 388 kts
2026-05-03 20:49 -31.15497 -71.64394 24272 ft 388 kts
2026-05-03 20:49 -31.12837 -71.63873 23864 ft 388 kts
2026-05-03 20:49 -31.10169 -71.63347 23411 ft 389 kts
2026-05-03 20:49 -31.07527 -71.62707 23143 ft 385 kts
2026-05-03 20:50 -31.04926 -71.61991 22715 ft 384 kts
2026-05-03 20:50 -31.02332 -71.61252 22323 ft 382 kts
2026-05-03 20:50 -30.99761 -71.60518 21922 ft 380 kts
2026-05-03 20:50 -30.97190 -71.59791 21525 ft 378 kts
2026-05-03 20:51 -30.94638 -71.59077 21128 ft 377 kts
2026-05-03 20:51 -30.92128 -71.58381 20733 ft 375 kts
2026-05-03 20:51 -30.89599 -71.57683 20347 ft 373 kts
2026-05-03 20:51 -30.87076 -71.56989 19953 ft 372 kts
2026-05-03 20:52 -30.84559 -71.56299 19543 ft 371 kts
2026-05-03 20:52 -30.82053 -71.55611 19163 ft 370 kts
2026-05-03 20:52 -30.79552 -71.54926 18767 ft 369 kts
2026-05-03 20:52 -30.77056 -71.54242 18372 ft 368 kts
2026-05-03 20:53 -30.74566 -71.53561 17928 ft 367 kts
2026-05-03 20:53 -30.72085 -71.52881 17508 ft 365 kts
2026-05-03 20:53 -30.69624 -71.52207 17112 ft 362 kts
2026-05-03 20:53 -30.67183 -71.51539 16729 ft 359 kts
2026-05-03 20:54 -30.64759 -71.50877 16344 ft 357 kts
2026-05-03 20:54 -30.59982 -71.49572 15593 ft 352 kts
2026-05-03 20:54 -30.57587 -71.48917 15205 ft 345 kts
2026-05-03 20:55 -30.55302 -71.48293 14840 ft 337 kts
2026-05-03 20:55 -30.53093 -71.47487 14461 ft 333 kts 24°
2026-05-03 20:55 -30.51262 -71.45890 14222 ft 330 kts 43°
2026-05-03 20:55 -30.49772 -71.44056 14018 ft 330 kts 45°
2026-05-03 20:56 -30.48240 -71.42092 13717 ft 328 kts 45°
2026-05-03 20:56 -30.46714 -71.40123 13353 ft 328 kts 45°
2026-05-03 20:56 -30.45184 -71.38157 12984 ft 328 kts 45°
2026-05-03 20:56 -30.43653 -71.36203 12640 ft 327 kts 45°
2026-05-03 20:57 -30.42118 -71.34254 12281 ft 327 kts 45°
2026-05-03 20:57 -30.40591 -71.32323 11923 ft 323 kts 45°
2026-05-03 20:57 -30.39083 -71.30418 11557 ft 318 kts 45°
2026-05-03 20:57 -30.37594 -71.28541 11208 ft 314 kts 45°
2026-05-03 20:58 -30.36123 -71.26689 10862 ft 309 kts 45°
2026-05-03 20:58 -30.34677 -71.24871 10530 ft 307 kts 45°
2026-05-03 20:58 -30.33258 -71.23087 10360 ft 301 kts 45°
2026-05-03 20:58 -30.31855 -71.21324 10222 ft 295 kts 45°
2026-05-03 20:59 -30.30478 -71.19594 10089 ft 289 kts 45°
2026-05-03 20:59 -30.29124 -71.17893 9840 ft 287 kts 45°
2026-05-03 20:59 -30.27770 -71.16194 9532 ft 287 kts 45°
2026-05-03 20:59 -30.26416 -71.14496 9235 ft 287 kts 45°
2026-05-03 21:00 -30.25062 -71.12800 8930 ft 287 kts 45°
2026-05-03 21:00 -30.24139 -71.11670 8720 ft 285 kts 43°
2026-05-03 21:00 -30.22204 -71.09677 8337 ft 278 kts 38°
2026-05-03 21:00 -30.20728 -71.08258 8075 ft 274 kts 38°
2026-05-03 21:01 -30.19264 -71.06857 7741 ft 273 kts 38°
2026-05-03 21:01 -30.17803 -71.05447 7413 ft 273 kts 39°
2026-05-03 21:01 -30.16356 -71.04042 7122 ft 270 kts 39°
2026-05-03 21:01 -30.14922 -71.02644 6826 ft 268 kts 40°
2026-05-03 21:02 -30.13505 -71.01258 6517 ft 267 kts 40°
2026-05-03 21:02 -30.12096 -70.99876 6235 ft 264 kts 40°
2026-05-03 21:02 -30.10719 -70.98527 6089 ft 255 kts 40°
2026-05-03 21:02 -30.09383 -70.97218 5980 ft 249 kts 40°
2026-05-03 21:03 -30.08077 -70.95937 5877 ft 239 kts 40°
2026-05-03 21:03 -30.06841 -70.94729 5793 ft 226 kts 40°
2026-05-03 21:03 -30.05594 -70.93717 5665 ft 215 kts 19°
2026-05-03 21:03 -30.04183 -70.93739 5549 ft 202 kts 335°
2026-05-03 21:04 -30.03194 -70.94771 5384 ft 191 kts 304°
2026-05-03 21:04 -30.02354 -70.96005 5152 ft 197 kts 305°
2026-05-03 21:04 -30.01573 -70.97287 4918 ft 193 kts 302°
2026-05-03 21:04 -30.00859 -70.98577 4667 ft 189 kts 297°
2026-05-03 21:05 -30.00263 -70.99903 4476 ft 183 kts 294°
2026-05-03 21:05 -29.99712 -71.01193 4232 ft 175 kts 295°
2026-05-03 21:05 -29.99178 -71.02433 4057 ft 173 kts 294°
2026-05-03 21:05 -29.98636 -71.03694 3821 ft 177 kts 294°
2026-05-03 21:06 -29.98083 -71.04976 3537 ft 178 kts 294°
2026-05-03 21:06 -29.97535 -71.06255 3258 ft 176 kts 294°
2026-05-03 21:06 -29.97007 -71.07475 3016 ft 168 kts 294°
2026-05-03 21:06 -29.96492 -71.08668 2756 ft 165 kts 296°
2026-05-03 21:07 -29.95997 -71.09826 2540 ft 158 kts 295°
2026-05-03 21:07 -29.95534 -71.10926 2269 ft 145 kts 294°
2026-05-03 21:07 -29.95105 -71.11917 2065 ft 134 kts 296°
2026-05-03 21:07 -29.94692 -71.12858 1878 ft 130 kts 295°
2026-05-03 21:08 -29.94274 -71.13806 1709 ft 135 kts 295°
2026-05-03 21:08 -29.93863 -71.14759 1532 ft 130 kts 294°
2026-05-03 21:08 -29.93477 -71.15702 1296 ft 130 kts 293°
2026-05-03 21:08 -29.93081 -71.16632 1068 ft 130 kts 296°
2026-05-03 21:09 -29.92667 -71.17562 838 ft 130 kts 295°
2026-05-03 21:09 -29.92275 -71.18496 620 ft 128 kts 297°
2026-05-03 21:09 -29.91891 -71.19371 473 ft 113 kts 296°
2026-05-03 21:09 -29.91656 -71.19926 474 ft 21 kts 296°
2026-05-03 21:10 -29.91613 -71.20029 472 ft 0 kts 296°
2026-05-03 21:10 -29.91610 -71.20036 470 ft 3 kts 296°
2026-05-03 21:10 -29.91595 -71.20087 477 ft 9 kts 269°
2026-05-03 21:10 -29.91643 -71.20141 479 ft 9 kts 209°
2026-05-03 21:11 -29.91664 -71.20204 479 ft 11 kts 291°
2026-05-03 21:11 -29.91626 -71.20293 473 ft 14 kts 297°
2026-05-03 21:11 -29.91586 -71.20384 476 ft 9 kts 293°
2026-05-03 21:11 -29.91595 -71.20425 475 ft 5 kts 227°
2026-05-03 21:12 -29.91615 -71.20441 478 ft 2 kts 208°
2026-05-03 21:12 -29.91622 -71.20445 478 ft 0 kts 208°